Theta_e
348 349 331 320 317 313 313 312 313 313 314 315 315 316 317 319 322 325 326 324 321 320 320 320 326 332 334 334 335 336 336 336 337 337 337 337 337 338 338 337 337 337 337 337 336 336 336 335 333 332 330 328 327 326 325 325 325 325 326 328 330 332 333 332 328 323 319 317 315 311 309 309 311 314 320 326 328 333 338 338 337 333 327 326 328
346 345 329 321 318 314 313 312 313 313 314 315 315 316 317 319 321 323 323 321 320 321 323 328 334 337 338 338 338 338 337 337 338 338 338 338 337 338 338 337 337 337 336 336 335 336 334 332 331 330 329 329 330 329 327 323 319 317 317 316 316 320 322 321 320 320 322 323 322 317 311 308 310 313 321 327 331 336 337 337 335 332 327 324 321
345 342 329 322 319 314 313 312 313 313 314 315 316 317 317 318 320 321 320 320 321 324 328 335 338 339 339 338 338 338 337 337 338 338 338 337 337 338 337 336 336 336 336 334 334 335 333 330 329 329 328 330 332 331 330 326 320 316 314 309 309 311 312 316 323 328 330 330 328 325 316 309 309 312 319 325 330 335 334 333 333 331 327 322 317
347 341 330 324 320 315 313 312 313 314 314 315 317 317 317 318 319 319 319 320 323 326 332 338 338 338 338 338 338 338 338 338 338 338 338 337 337 337 337 335 335 336 335 333 333 333 330 328 327 327 326 329 330 328 328 325 319 314 309 307 308 307 313 323 330 332 331 333 332 330 323 312 309 311 317 323 326 329 328 329 331 329 324 318 314
346 338 330 325 320 316 313 312 313 314 315 315 317 317 317 318 319 319 319 322 325 330 335 337 337 338 338 338 338 338 338 337 338 338 338 338 337 337 336 335 335 335 334 333 333 332 329 325 324 325 326 329 326 321 320 317 312 308 307 307 307 310 322 330 331 332 332 333 332 332 329 315 309 310 313 319 322 323 323 325 328 326 319 314 312
343 334 330 325 320 316 313 312 312 314 315 316 317 317 318 319 319 319 321 324 327 334 337 337 337 337 338 338 338 338 337 337 337 337 338 337 338 337 336 334 333 333 332 331 330 329 328 324 324 327 327 323 317 313 312 309 308 307 307 307 308 317 328 332 331 333 333 333 332 332 331 317 310 310 310 314 317 319 320 322 323 320 316 312 311
339 333 331 325 320 316 313 312 312 314 314 316 317 317 318 319 320 321 322 324 330 337 338 337 338 338 338 337 337 338 337 337 337 337 337 337 338 337 335 333 331 330 328 327 325 323 324 325 326 326 321 315 311 309 308 307 308 307 307 308 313 323 329 331 332 333 332 333 332 333 331 318 311 311 310 312 314 316 318 318 318 315 313 311 310
337 333 331 326 320 316 313 312 312 314 315 317 317 318 318 319 320 321 323 326 333 337 338 338 338 338 337 337 337 337 337 337 337 337 337 337 336 335 334 331 330 329 323 320 319 316 317 320 321 319 315 311 310 308 308 308 308 307 308 310 318 326 331 332 332 332 332 333 332 333 330 318 311 312 312 313 314 315 315 314 313 312 311 310 310
339 336 332 327 321 316 313 312 312 314 315 317 318 318 318 320 320 322 326 331 335 337 337 338 338 338 337 336 336 336 336 337 337 337 337 336 335 334 333 331 330 325 317 313 313 314 314 316 316 315 313 312 310 309 309 309 309 309 309 315 322 328 331 331 332 332 333 334 332 331 328 316 309 312 312 313 313 313 313 312 311 310 310 310 310
342 340 333 327 321 316 314 312 312 314 315 317 319 318 319 320 321 326 331 335 336 337 337 337 338 337 337 337 336 336 336 335 336 336 335 334 333 332 330 328 323 316 311 310 313 316 315 314 313 313 313 312 311 310 310 310 310 310 314 322 328 330 330 330 330 330 331 333 330 327 324 314 308 310 310 311 311 311 311 310 310 310 310 310 310
344 342 334 327 321 317 314 312 312 313 315 317 319 319 320 322 325 331 335 337 337 337 337 337 337 337 337 337 336 335 333 333 332 332 332 331 330 328 324 318 313 309 308 311 315 315 313 312 312 313 313 312 311 311 311 312 312 314 321 327 329 331 331 331 331 331 332 333 329 323 317 312 310 310 310 310 310 310 310 310 311 310 311 311 311
345 343 334 327 322 318 314 312 312 313 315 317 320 320 321 325 330 334 335 337 337 337 337 336 337 336 337 336 334 333 331 329 327 325 323 323 322 319 315 311 308 308 309 312 314 313 312 313 313 313 313 312 312 312 312 312 314 317 322 325 328 330 331 332 332 331 332 334 331 321 314 312 311 311 311 311 311 311 311 311 311 311 311 311 311
345 343 334 328 324 318 315 311 312 313 315 316 320 320 322 329 333 334 335 336 337 337 336 335 336 336 336 335 334 333 330 326 321 317 315 314 313 312 309 308 308 308 311 313 312 312 313 313 313 313 313 312 312 312 313 313 314 317 319 323 328 330 331 332 332 332 332 334 331 320 314 312 311 312 312 312 311 311 311 311 311 311 311 311 311
345 343 334 329 325 320 316 312 311 313 315 316 318 320 322 328 332 334 335 336 336 336 335 335 336 336 336 335 335 334 329 322 316 312 310 309 309 308 308 308 309 309 312 313 312 312 313 314 313 313 312 312 312 312 312 312 313 316 318 321 325 328 331 332 332 331 331 334 330 319 313 312 311 312 311 311 311 311 311 311 311 311 311 311 311
345 342 334 330 328 323 319 313 311 312 315 315 317 320 323 328 332 334 335 335 335 334 334 336 336 336 336 335 335 333 327 319 313 310 308 308 308 309 309 309 309 310 312 312 312 313 313 313 313 313 312 312 312 312 312 313 314 315 317 320 324 328 330 331 332 332 332 334 332 324 317 314 313 312 312 312 311 312 311 311 311 311 311 312 311
344 341 333 331 329 326 323 317 313 311 313 314 316 320 324 329 331 332 334 335 334 334 335 336 336 336 335 335 334 331 324 317 312 309 308 308 309 309 309 310 310 311 313 313 313 313 314 314 313 312 312 313 312 313 313 314 315 316 317 320 323 328 331 333 334 334 334 334 333 329 321 317 316 315 314 313 312 312 312 311 312 311 312 311 311
344 342 334 332 331 328 326 322 317 312 312 313 314 319 327 332 332 332 334 334 334 334 335 335 336 336 336 335 332 328 321 315 311 309 308 309 309 309 309 310 311 312 313 314 314 314 314 314 313 313 313 313 313 313 314 315 316 317 317 319 323 327 331 333 333 333 331 334 334 330 323 319 318 318 317 316 315 313 312 312 312 312 311 311 311
342 341 335 333 333 331 329 326 322 317 312 311 312 317 327 332 332 333 334 333 334 334 334 334 334 335 334 331 327 323 318 314 311 309 308 309 309 309 310 310 311 313 314 315 315 315 315 315 315 314 314 314 314 314 314 316 316 317 318 319 321 325 329 330 330 330 330 333 334 331 326 320 318 319 319 319 318 317 315 314 312 311 311 311 311
340 339 336 335 335 332 331 329 326 322 316 312 311 314 324 331 332 333 333 332 333 333 334 333 333 333 329 326 323 319 317 314 310 309 309 310 309 309 310 310 311 312 314 316 316 316 316 316 317 316 316 315 315 315 315 316 317 318 318 318 320 323 328 331 332 333 333 333 332 331 327 320 319 319 318 320 319 320 319 318 316 314 312 311 311
339 339 339 339 337 332 332 331 329 327 322 315 312 312 322 331 332 333 333 332 333 333 332 332 332 330 326 329 328 324 324 321 317 314 309 308 309 310 310 310 310 311 313 316 318 318 318 318 319 319 319 318 318 318 318 317 318 319 319 319 320 321 325 329 331 333 333 334 329 327 325 319 318 319 318 319 319 320 321 321 320 319 317 315 313
341 341 341 341 338 334 333 332 331 331 328 322 316 311 318 327 329 331 333 333 333 331 331 331 329 326 328 334 335 334 332 332 331 324 315 311 310 309 310 311 311 310 311 312 315 317 319 320 320 320 320 321 320 319 319 318 318 318 318 318 317 319 322 324 330 333 332 332 329 327 326 320 318 318 318 319 319 320 321 322 322 322 322 320 317
344 342 342 342 340 338 337 336 336 335 333 330 323 314 313 319 323 329 333 334 334 331 328 329 328 325 331 338 338 336 334 334 336 330 322 319 315 310 310 310 310 310 311 311 312 314 315 317 318 319 320 320 319 318 319 321 322 321 320 318 317 318 321 325 330 333 331 331 331 331 329 322 318 319 319 319 319 319 321 322 323 323 324 322 320
345 343 343 343 342 341 340 340 340 339 337 335 329 321 314 313 319 328 333 334 332 329 329 332 331 325 331 338 336 335 335 334 335 332 323 321 318 313 313 313 312 311 310 311 310 311 312 313 314 315 317 317 317 317 319 324 326 326 326 323 321 319 324 330 329 330 332 331 333 333 330 324 319 320 320 320 320 319 320 322 323 324 324 323 321
345 344 344 344 344 344 343 342 341 341 339 337 332 326 320 312 317 329 333 332 330 331 333 335 336 332 331 335 335 334 335 332 332 331 322 320 322 319 320 321 321 316 313 313 311 311 310 310 311 311 312 313 314 314 321 330 329 328 330 328 326 324 329 333 330 329 333 332 332 332 330 326 322 323 322 322 322 321 320 321 323 324 324 324 322
345 344 344 345 345 345 344 343 342 342 340 338 333 329 327 319 321 330 333 332 331 333 334 336 339 338 333 334 334 329 329 328 323 324 321 322 326 325 326 326 325 321 318 317 314 314 313 313 316 316 315 314 315 316 326 335 333 330 330 330 328 329 333 335 332 331 332 332 332 333 332 329 326 324 323 323 324 323 322 321 322 323 324 324 323
345 345 345 345 345 345 344 343 342 342 340 339 336 332 333 330 329 332 333 333 332 331 333 336 338 337 336 333 328 323 328 331 327 328 330 330 331 331 332 330 327 326 325 324 326 326 322 320 325 328 326 324 323 325 329 333 333 331 330 331 330 331 334 334 332 332 331 332 333 333 333 331 328 326 325 325 326 326 326 324 322 322 324 325 324
345 345 345 345 345 345 344 343 342 341 340 339 337 335 336 336 334 333 334 334 333 332 333 334 334 336 334 327 323 327 333 336 334 335 336 335 335 335 335 334 332 332 333 331 333 335 330 327 330 333 333 332 331 330 331 332 333 332 330 330 331 332 333 332 333 332 332 333 333 334 334 332 329 327 326 326 326 327 328 327 325 323 324 325 325
345 345 345 345 345 344 344 342 341 339 340 339 336 336 337 336 335 335 334 335 335 333 333 334 334 332 327 322 325 332 335 336 337 336 334 334 335 336 337 337 335 335 337 335 334 335 334 332 331 332 333 333 333 331 330 330 332 332 331 331 330 331 332 331 332 332 332 333 333 334 334 332 331 329 328 328 328 328 328 329 328 326 325 325 326
345 345 345 345 344 344 342 341 339 338 339 337 335 335 336 336 335 335 334 335 334 333 334 334 330 324 322 326 330 334 337 337 338 335 330 330 334 336 336 336 337 335 336 336 334 333 334 333 331 332 332 333 333 333 332 330 331 332 332 332 331 330 330 331 331 331 332 333 333 334 334 331 331 332 330 327 327 328 329 329 329 329 327 325 325
344 345 344 344 344 343 341 339 338 338 337 335 335 334 336 335 334 335 334 333 333 333 333 329 325 323 324 329 332 333 336 336 336 335 331 330 334 335 334 335 337 335 335 335 333 333 333 334 333 333 334 334 334 334 334 333 332 332 332 332 332 332 331 331 330 331 332 332 332 332 333 331 330 332 330 327 325 327 329 329 329 330 330 328 326
344 344 344 344 343 341 340 338 337 337 335 334 334 334 334 334 334 335 334 334 333 331 328 326 327 329 328 329 331 332 333 334 335 334 333 332 334 334 335 336 336 336 335 334 333 333 333 334 334 334 335 335 334 334 335 335 335 334 334 333 332 333 333 333 332 333 333 334 332 330 328 327 327 328 328 327 325 325 328 329 330 330 330 330 329
344 344 344 343 342 340 338 336 335 335 334 334 334 333 333 334 334 333 332 334 331 328 329 330 333 334 331 331 332 332 333 334 334 333 333 333 334 334 336 336 336 336 335 334 333 333 334 334 334 334 335 334 333 333 334 334 334 334 334 334 333 332 333 333 333 334 334 335 335 333 330 327 325 324 324 323 323 326 328 329 330 330 330 330 330
344 343 343 341 340 339 336 335 335 334 334 334 334 334 335 335 334 332 333 333 331 331 334 334 335 336 335 334 334 334 334 334 333 332 333 335 335 334 335 335 335 336 335 334 334 334 334 335 335 334 334 334 334 334 334 334 334 334 334 335 335 334 334 333 333 333 334 335 336 336 334 332 329 326 323 320 320 324 327 328 330 330 331 331 330
343 342 341 340 339 337 336 335 334 334 335 333 333 335 335 335 334 334 334 334 333 335 336 336 336 336 335 335 334 334 334 333 332 332 333 335 335 335 335 335 335 335 333 333 334 334 335 335 335 334 334 334 335 335 335 336 336 335 335 336 335 334 334 334 333 333 334 335 335 335 335 334 332 330 328 324 320 320 322 327 331 331 330 331 331
342 341 340 338 337 336 336 334 334 335 334 333 334 336 335 335 336 336 335 335 335 336 336 336 336 335 335 335 335 334 333 333 333 333 333 334 335 336 336 335 333 332 332 333 333 333 335 335 334 334 333 333 334 335 335 336 336 336 336 336 335 333 334 334 334 334 333 334 334 335 334 334 333 332 331 329 326 323 321 324 329 331 331 331 331
341 340 338 337 337 336 334 332 333 334 333 334 336 336 335 336 336 336 336 336 336 335 336 336 335 335 336 335 334 333 334 334 334 335 335 336 336 336 336 335 333 332 332 333 333 334 335 335 335 334 334 334 333 334 335 335 335 335 336 336 334 333 333 333 333 333 334 334 334 334 334 333 333 332 332 331 330 327 324 322 326 331 331 331 331
340 338 338 337 336 334 330 330 332 332 333 335 336 336 337 337 337 336 336 336 336 336 335 335 335 335 336 336 335 334 335 335 335 336 335 336 337 336 336 335 334 334 333 333 334 335 336 336 335 334 334 335 334 334 334 335 335 335 335 335 334 334 333 333 332 332 333 333 334 334 334 334 333 333 332 331 331 330 328 325 326 330 331 331 332
338 338 337 335 334 333 330 331 334 333 334 335 335 336 338 337 337 336 336 336 337 336 336 336 336 336 337 337 336 335 336 335 336 336 334 336 337 337 335 334 334 334 333 334 335 335 335 335 334 333 334 334 333 333 333 333 333 333 333 333 333 333 333 332 332 332 333 332 332 333 333 333 334 334 333 331 331 331 331 329 328 329 331 332 332
337 336 334 333 334 335 333 333 334 335 336 337 336 337 337 337 337 336 335 336 336 336 336 335 334 335 336 336 336 336 336 335 336 336 335 336 335 335 335 333 333 334 334 334 335 335 333 333 332 332 332 332 332 332 333 333 333 332 332 331 331 332 332 332 332 332 332 333 332 332 333 333 333 334 333 332 331 332 332 332 331 330 331 331 332
336 335 334 334 336 336 336 335 335 336 337 337 337 337 337 337 336 336 335 335 335 335 334 332 332 334 335 335 336 336 336 336 337 336 335 335 334 334 334 333 333 335 335 334 334 333 332 332 332 332 332 332 332 332 333 333 332 332 332 331 331 332 332 332 333 332 332 332 332 332 332 333 332 333 334 333 332 332 332 332 332 331 330 330 330
336 335 334 335 336 337 337 337 337 336 336 336 337 337 337 337 336 336 336 336 336 337 336 335 334 336 336 336 336 336 336 337 337 336 335 335 335 334 334 334 334 334 333 332 331 332 333 334 334 333 332 333 333 333 333 332 332 333 332 331 330 331 332 333 333 332 332 331 331 331 331 331 332 332 333 333 333 332 332 332 332 331 330 330 331
336 334 334 335 336 337 337 337 336 335 335 335 336 336 336 336 336 336 337 336 337 337 337 337 335 336 337 337 337 337 337 337 337 336 336 336 335 336 335 334 333 332 330 329 330 332 334 334 334 333 333 333 334 334 334 333 333 333 332 331 330 330 331 333 333 332 331 331 330 331 330 330 330 330 331 332 333 333 333 332 333 332 332 331 332
336 334 335 335 336 336 336 336 335 335 335 335 335 333 335 336 336 336 337 336 336 336 336 335 334 336 337 337 337 337 337 337 336 336 336 336 336 335 334 333 331 329 327 327 330 332 334 333 333 334 333 333 334 334 334 334 334 333 332 332 331 331 331 333 333 331 330 331 330 330 331 330 330 329 330 330 331 332 332 332 333 333 332 332 332
337 335 336 336 336 336 335 334 335 335 336 335 334 333 334 335 335 335 336 335 335 335 334 332 334 337 337 336 336 334 334 334 333 333 333 334 334 333 333 332 329 326 325 326 329 331 332 333 333 333 333 333 333 333 333 334 334 333 333 333 332 331 333 333 331 330 331 331 330 330 331 331 330 330 330 330 330 330 330 331 331 332 332 332 333
337 337 337 337 336 335 335 335 335 335 335 335 335 335 334 333 334 335 335 334 333 333 332 333 335 336 335 334 333 332 331 331 331 331 330 330 331 331 330 328 326 325 324 325 328 329 331 332 331 332 332 332 332 331 332 334 333 333 333 333 333 332 333 332 331 331 331 331 331 331 331 331 331 331 331 330 330 331 330 330 330 330 331 331 332
337 337 337 336 335 336 336 336 335 335 335 333 333 335 334 334 334 334 335 334 333 333 334 334 334 334 334 333 331 330 329 329 329 328 327 327 327 326 324 323 325 325 323 324 326 326 327 328 327 328 329 330 330 329 331 332 332 333 333 333 333 333 333 332 332 332 331 330 330 331 331 332 332 332 331 330 330 330 330 330 329 329 329 330 330
336 336 336 335 336 336 336 335 335 335 334 332 332 333 333 334 334 334 335 335 334 335 335 334 334 333 333 332 331 329 327 327 327 325 324 324 324 322 321 321 322 323 322 321 322 322 322 322 322 323 325 326 328 329 329 329 329 331 332 333 333 333 333 332 333 333 332 331 330 330 331 332 332 332 332 331 330 330 330 330 330 329 329 328 329
337 336 337 336 336 335 334 334 334 333 331 331 331 332 332 333 334 334 335 334 334 334 334 333 332 332 332 331 328 327 325 324 324 323 322 321 321 321 320 319 319 320 319 318 319 319 318 318 318 320 321 322 324 327 328 328 328 329 330 331 331 332 332 332 332 332 332 332 331 330 331 332 332 331 331 331 331 330 330 330 330 330 329 329 328
337 337 337 335 334 334 334 333 332 330 330 330 329 330 333 334 332 332 333 334 334 333 332 332 331 331 331 329 326 326 325 323 322 322 321 321 321 320 319 319 319 319 318 317 317 316 316 316 315 316 318 318 320 322 324 325 326 326 327 327 328 329 329 329 330 330 330 331 331 331 331 331 331 331 331 331 330 331 331 331 330 330 330 329 329
337 336 335 334 333 333 333 332 330 330 331 331 331 332 333 333 332 332 333 333 332 331 331 332 332 331 330 328 325 324 324 322 321 321 321 320 320 319 318 318 317 316 316 315 315 314 314 314 314 315 317 317 317 317 319 321 322 322 323 324 324 325 325 325 326 327 327 328 329 329 329 330 331 331 331 330 331 331 331 331 330 330 330 330 330
336 335 334 333 333 333 333 332 331 331 331 331 333 333 333 333 333 333 333 333 332 332 332 332 331 330 328 326 324 322 321 321 320 320 319 319 318 317 316 316 315 314 314 314 314 313 313 313 313 314 315 315 314 314 315 316 316 317 319 320 321 322 322 323 323 323 324 325 326 326 327 328 329 329 330 330 331 331 330 330 330 330 330 330 330
Wind_Speed
16 14 14 13 12 11 12 11 11 12 11 9 9 11 14 16 16 15 14 14 14 14 15 16 16 15 14 14 13 13 13 12 12 13 14 14 14 13 13 13 13 13 12 12 12 11 11 12 11 12 12 12 11 10 9 8 7 7 6 5 4 4 5 6 8 9 9 11 15 13 9 5 4 6 9 10 9 9 10 9 8 8 10 11 10
18 16 16 15 12 12 12 11 11 12 11 10 10 11 14 16 16 16 15 15 15 17 17 17 15 14 14 13 13 12 12 12 12 13 13 13 13 13 13 13 13 13 12 12 11 11 11 11 11 11 11 11 11 10 9 8 7 6 6 5 4 3 5 7 10 12 13 16 19 19 15 8 7 8 9 11 9 9 9 8 8 8 10 10 9
16 18 17 15 13 12 12 12 11 11 11 10 10 11 14 15 16 16 16 16 17 18 18 16 14 13 13 13 12 12 12 12 12 12 12 13 13 12 12 12 12 12 11 11 10 10 10 11 10 10 10 10 10 10 9 7 7 7 7 6 5 5 7 12 15 18 19 19 19 20 18 10 7 8 9 10 9 8 8 8 7 7 9 9 9
15 19 18 16 14 13 12 12 12 11 11 11 10 11 13 15 16 17 17 18 18 19 17 14 13 13 12 12 11 11 11 11 11 11 12 12 12 12 12 11 11 11 10 10 9 9 9 10 9 8 8 9 9 9 8 8 8 8 9 9 8 10 15 19 21 21 20 19 17 18 18 12 7 7 8 8 8 7 6 6 6 6 8 8 8
17 20 19 17 15 14 13 12 12 11 12 11 11 12 14 16 16 17 18 19 19 18 16 14 13 13 12 11 11 10 10 10 10 11 11 11 11 11 10 10 10 10 9 9 8 8 8 8 8 7 8 8 8 8 8 8 9 10 12 12 14 17 21 23 22 19 19 19 16 13 14 12 8 6 7 6 6 5 4 4 4 5 6 7 7
18 22 19 18 17 15 14 13 12 12 12 12 12 13 14 16 17 18 18 19 19 17 15 14 13 12 12 11 10 10 9 9 9 10 11 11 11 10 9 9 9 9 8 8 7 7 7 8 8 8 8 8 8 8 9 10 11 12 14 15 18 21 23 23 20 17 17 16 16 11 8 11 8 6 6 6 6 5 4 3 3 4 5 6 6
18 22 19 18 17 16 15 14 13 12 12 13 13 14 15 17 18 18 18 19 18 16 15 14 13 12 11 10 9 9 9 8 9 9 10 10 10 9 9 8 8 7 6 6 6 6 6 7 8 8 8 8 9 10 10 11 12 14 15 18 21 23 24 23 21 19 17 15 15 10 5 9 8 6 7 7 6 6 5 5 4 4 5 5 5
20 21 18 18 17 16 15 15 13 13 13 14 14 15 16 17 18 18 18 18 16 15 14 14 13 12 11 10 8 8 8 8 8 8 8 8 8 8 7 7 6 6 5 5 5 5 5 6 7 8 9 9 10 11 12 13 13 14 16 19 22 23 23 21 21 19 17 16 14 6 6 6 7 7 8 7 6 5 5 6 5 5 4 5 5
20 19 18 18 16 16 15 15 14 14 14 14 15 15 16 17 18 18 18 16 16 15 14 14 13 12 10 9 8 7 8 7 7 7 7 6 6 5 5 4 4 5 5 5 6 6 7 7 8 9 10 10 10 11 12 13 13 14 17 20 22 22 21 20 19 18 17 13 11 6 3 5 7 7 7 6 6 4 5 6 5 5 4 4 4
20 18 19 17 17 16 15 15 14 14 14 15 16 16 17 17 18 18 17 16 16 15 14 13 12 11 10 9 8 7 7 6 6 5 5 4 3 2 2 3 4 4 5 7 8 8 8 9 10 10 10 10 10 11 12 13 13 15 19 21 22 22 20 20 18 18 17 9 7 4 2 4 6 6 7 6 6 5 5 5 5 4 4 4 4
19 17 19 18 17 17 15 15 14 14 15 16 16 17 18 18 19 18 17 16 16 15 14 13 12 11 10 9 8 7 6 5 4 3 2 1 1 1 2 3 4 5 7 8 9 9 10 10 11 11 10 10 11 12 12 13 14 17 20 21 23 21 20 19 17 18 15 9 5 2 2 4 5 6 6 7 6 5 5 5 5 4 4 4 4
19 17 19 19 18 17 16 15 14 15 15 15 17 17 18 19 19 18 17 16 15 15 14 13 12 10 10 8 7 5 5 4 2 2 1 1 1 1 3 4 6 7 8 10 10 11 11 11 11 10 10 11 11 12 13 14 15 17 19 21 22 21 20 18 17 17 11 7 5 4 5 5 5 5 5 5 5 4 4 4 4 3 3 3 4
19 15 19 20 18 18 16 16 15 15 15 15 16 17 18 19 18 17 17 16 15 14 14 13 12 10 9 7 6 5 3 2 2 1 2 2 2 3 4 5 7 9 10 10 11 12 11 11 10 10 11 11 11 12 13 14 15 16 17 19 20 20 19 17 17 15 9 5 2 3 6 4 4 4 4 4 4 3 3 3 3 3 3 3 3
19 14 20 21 19 19 17 17 16 16 16 16 16 16 17 19 18 17 16 16 15 14 14 12 11 10 8 7 5 3 2 1 1 2 2 3 4 5 6 6 7 10 11 11 11 11 11 11 10 10 11 11 11 11 12 13 14 14 15 16 17 18 18 16 16 12 8 4 0 4 6 4 4 2 3 3 2 2 2 2 2 2 2 2 1
17 15 21 21 20 20 18 17 17 17 17 16 17 17 18 19 19 17 16 15 15 14 13 12 11 9 8 6 4 2 1 1 2 3 3 4 5 6 7 7 8 10 11 11 11 10 11 10 10 10 10 10 10 10 11 11 12 12 12 12 14 16 16 15 15 10 5 1 4 4 5 4 3 2 2 1 1 1 0 1 1 1 1 1 1
18 16 19 21 21 20 19 18 17 17 17 16 16 17 18 19 19 17 16 15 14 14 13 11 10 9 7 5 3 1 1 1 2 3 4 4 5 6 7 7 8 11 11 11 10 9 9 9 8 9 8 8 8 9 9 9 9 10 10 10 12 14 15 14 14 9 4 2 7 6 3 4 4 3 3 2 2 2 2 2 3 2 3 2 3
18 16 19 21 21 20 20 19 17 17 16 16 16 17 18 19 19 17 16 15 14 13 12 11 9 7 6 4 2 2 2 2 3 3 4 4 4 5 6 7 8 10 11 10 9 8 8 7 7 7 7 6 6 6 7 7 7 8 9 10 11 12 13 12 12 7 4 3 6 7 4 6 5 5 5 5 5 4 4 4 5 4 5 5 5
15 15 21 22 21 21 20 19 18 17 17 16 17 17 18 20 19 17 16 15 14 13 11 10 7 6 5 3 2 1 2 1 2 3 3 4 4 4 5 6 7 9 10 10 9 8 7 6 6 5 5 4 4 4 4 5 5 6 6 8 10 10 11 10 10 5 2 4 6 8 7 7 6 7 6 6 7 6 6 6 6 7 7 7 7
13 15 21 20 20 20 19 19 18 18 18 17 17 17 19 20 19 17 16 15 14 12 10 9 6 6 5 5 6 5 4 3 2 2 2 3 3 3 4 4 5 7 9 10 9 8 7 6 5 4 3 3 2 2 1 3 3 4 4 5 6 7 9 10 10 5 1 2 8 9 9 7 7 8 7 8 8 7 7 7 8 8 8 8 9
14 17 20 18 17 18 18 18 18 18 17 17 18 18 19 20 19 17 16 15 13 12 10 8 6 5 6 7 8 7 6 5 3 3 2 2 2 2 3 3 3 4 7 9 9 8 7 6 5 4 3 2 1 1 0 0 1 2 2 2 2 3 4 6 8 4 1 7 10 8 8 8 7 8 8 9 9 8 8 8 9 9 10 9 10
19 20 21 20 16 13 15 16 16 16 15 15 16 17 19 19 19 18 16 15 13 12 10 7 6 6 7 8 7 5 4 4 2 3 2 2 2 2 2 3 2 2 3 5 7 7 7 6 5 4 3 3 2 2 1 2 2 2 2 2 2 2 2 2 5 3 3 10 12 9 9 9 9 10 10 10 10 10 9 9 9 9 10 11 10
24 23 23 23 17 12 14 14 14 14 13 14 13 15 19 19 20 19 16 15 12 11 10 8 7 7 8 7 6 3 2 2 1 2 2 3 3 2 2 2 2 2 2 2 3 4 5 5 4 4 4 3 3 3 3 2 4 5 5 5 5 5 5 2 3 3 3 11 13 11 11 11 10 11 11 11 11 11 10 10 10 9 10 11 11
25 25 25 22 15 15 17 16 16 14 12 12 13 14 17 19 20 19 16 14 12 11 11 9 8 8 7 6 5 3 1 2 1 2 2 4 3 3 4 3 3 2 1 0 1 2 2 3 3 4 4 4 4 5 6 5 6 7 9 9 7 7 7 5 3 3 4 12 14 14 13 11 10 11 12 12 12 12 11 11 11 10 10 10 10
26 27 26 21 16 18 18 17 17 15 13 13 14 14 14 17 20 19 17 14 13 11 10 9 8 7 6 6 5 5 5 5 3 2 2 2 4 5 4 4 3 2 2 1 2 2 3 3 4 5 5 6 6 6 6 7 9 11 13 12 10 8 6 6 7 3 6 14 15 14 14 12 10 11 11 12 13 13 12 12 12 11 10 9 10
27 26 24 21 19 19 19 18 17 15 13 12 14 14 12 14 17 17 17 16 13 11 10 9 9 7 6 6 5 7 9 3 3 3 1 2 5 6 5 5 2 1 2 2 2 2 2 3 4 5 6 6 6 5 4 6 12 15 15 14 13 9 5 8 9 7 10 14 15 16 15 13 11 11 11 12 13 13 13 13 12 12 11 9 9
28 26 23 22 20 20 20 19 18 16 14 12 12 12 12 12 12 14 16 15 12 10 11 10 10 9 6 7 7 8 9 4 2 4 4 2 5 8 7 6 4 3 5 5 2 4 5 4 5 7 8 7 7 6 3 6 12 14 13 14 15 11 8 9 10 10 12 15 16 17 17 15 13 12 12 12 12 13 13 14 13 13 13 10 8
27 25 24 23 21 20 21 20 19 17 14 13 12 12 14 12 11 12 13 12 10 9 8 7 9 10 8 8 9 9 9 6 3 4 3 3 3 5 5 4 5 5 6 5 2 8 9 7 8 10 10 10 9 8 8 10 13 14 12 12 14 15 14 11 10 11 13 16 18 18 17 16 15 14 13 13 13 13 14 14 14 14 14 11 9
26 25 25 23 22 22 21 20 17 16 15 14 13 14 15 13 12 13 13 13 12 9 9 8 10 11 9 9 9 7 6 6 5 6 6 6 7 7 5 4 4 4 6 6 5 8 7 6 7 8 8 8 9 9 11 12 14 16 15 13 13 14 18 16 13 13 13 17 19 17 18 17 16 15 14 14 14 14 14 14 14 14 14 14 12
26 26 24 24 23 22 21 18 17 17 17 15 14 16 17 15 14 14 14 15 13 11 12 13 11 9 10 10 8 7 6 6 7 6 4 5 9 10 9 8 6 6 8 9 7 8 8 9 9 8 8 8 9 10 11 12 14 16 16 15 16 14 16 18 18 17 16 18 20 19 20 20 19 17 16 15 15 16 16 15 15 15 15 15 13
27 27 24 24 23 21 21 18 17 18 16 16 15 18 19 17 16 13 13 15 13 13 14 13 9 10 11 9 8 8 8 8 8 6 5 7 8 7 8 7 7 7 9 10 8 7 8 9 9 8 8 9 11 11 11 13 13 15 14 16 18 18 16 16 19 21 19 19 22 23 22 23 22 20 19 18 17 18 18 17 16 16 16 16 15
28 26 23 22 21 19 19 18 18 17 14 16 18 17 16 15 16 14 13 14 14 14 13 11 10 10 9 8 8 8 8 7 7 6 7 7 5 5 6 6 6 6 7 8 7 6 7 7 8 9 9 10 12 12 12 13 13 13 14 15 17 19 18 18 19 20 21 21 22 24 24 24 24 23 22 20 20 20 19 19 18 18 18 18 16
26 24 21 20 21 19 17 17 18 17 15 15 16 13 12 13 14 15 14 14 15 14 12 11 11 9 9 9 8 8 7 6 6 5 5 4 3 4 4 5 5 5 6 6 6 6 6 7 7 9 10 11 12 11 12 14 15 14 15 15 15 17 18 19 19 18 20 22 22 25 26 24 24 25 24 24 23 22 21 20 19 19 20 19 18
22 21 20 20 21 19 17 16 16 16 15 14 13 12 13 14 14 14 14 15 14 12 11 10 9 8 8 8 8 7 6 6 4 4 3 2 2 2 3 4 4 4 5 5 5 6 6 7 7 8 10 11 11 10 12 13 14 15 15 16 16 16 17 18 20 20 19 20 22 26 27 26 25 27 28 27 25 23 23 22 20 19 20 20 19
20 20 20 21 20 18 17 17 16 16 14 13 13 13 14 14 14 12 13 13 12 11 10 9 9 8 8 7 7 7 6 5 5 4 4 3 3 3 2 2 2 3 4 4 4 4 5 7 7 9 10 10 11 11 13 13 14 15 15 15 17 17 17 18 19 20 20 21 24 25 26 26 25 25 27 27 27 26 26 24 21 20 20 20 20
19 19 19 19 18 17 16 17 17 15 13 13 13 14 15 14 12 12 12 11 10 9 9 9 8 8 7 7 6 7 6 5 4 4 4 5 4 3 2 1 1 3 3 4 5 5 5 7 7 9 10 11 11 11 13 14 14 15 14 15 16 16 17 19 20 20 20 24 26 25 25 26 24 24 25 25 26 27 27 26 24 22 20 20 20
19 18 18 18 17 15 15 15 16 15 15 15 15 15 15 13 11 11 11 10 8 8 8 8 8 7 6 7 7 7 6 5 4 3 4 4 3 2 1 1 2 3 4 4 5 5 5 7 7 9 10 11 12 12 12 14 15 15 15 15 16 16 18 19 20 21 21 24 26 25 26 26 25 24 24 24 24 25 25 25 25 24 21 20 21
19 20 20 18 16 15 15 16 17 17 17 17 16 15 13 13 12 10 10 9 8 7 8 8 7 8 7 6 6 6 6 5 4 3 2 3 2 2 1 1 2 3 4 5 5 5 6 7 8 9 11 12 12 12 13 14 15 15 15 16 17 17 19 20 20 20 21 22 23 24 25 25 25 24 23 25 25 24 24 23 24 24 22 20 20
16 19 18 16 15 17 17 18 18 17 17 16 14 13 12 12 10 10 10 9 9 8 9 9 8 7 6 5 5 6 5 4 4 2 2 2 2 2 1 2 3 4 5 5 5 5 7 8 10 11 11 12 13 13 14 14 15 15 16 17 17 18 19 20 20 19 19 21 21 21 22 23 26 25 23 24 24 25 25 23 22 23 23 21 20
14 16 17 17 18 19 18 17 17 16 15 14 12 10 10 10 9 9 9 9 9 8 8 9 7 5 6 6 6 5 4 3 3 2 2 1 1 2 2 3 4 4 5 5 5 6 8 10 11 12 12 12 13 14 14 15 16 16 17 18 17 16 17 18 18 17 17 19 20 20 19 20 22 22 22 22 22 24 24 23 23 23 23 22 22
15 16 17 19 19 18 17 16 16 16 14 12 10 9 9 9 9 9 9 9 8 7 8 8 8 7 8 7 6 5 4 3 2 2 2 1 1 2 3 3 3 4 4 5 6 7 8 10 11 12 13 13 12 13 14 15 17 17 16 17 16 17 17 16 15 14 15 17 18 17 18 19 20 20 21 21 21 22 22 22 23 23 23 23 23
18 18 17 17 16 15 14 14 15 14 12 11 10 10 9 8 9 9 9 9 9 9 9 8 8 8 7 6 6 5 4 3 2 2 2 1 1 1 2 2 2 2 3 4 6 7 7 9 11 11 13 13 13 13 14 15 16 16 17 18 17 16 15 15 15 14 14 16 17 17 18 20 20 19 21 21 20 22 22 22 23 22 23 24 23
20 19 18 17 15 13 14 14 13 11 10 12 11 8 8 8 8 8 7 9 9 9 9 8 7 6 5 5 5 5 4 4 4 4 3 3 2 1 1 2 2 3 3 4 5 6 6 8 10 11 11 12 12 12 13 15 14 16 19 20 19 16 15 14 14 14 17 18 17 18 18 18 19 17 18 19 19 21 22 21 22 21 21 23 24
19 19 18 18 16 15 15 13 12 13 12 12 10 8 9 10 9 8 7 8 8 7 7 6 5 4 4 5 5 6 6 6 7 6 6 6 4 3 3 3 4 6 5 4 3 3 5 6 8 10 11 11 11 11 12 14 15 16 17 17 18 19 16 11 12 18 20 18 15 15 16 16 17 17 17 17 17 19 20 21 22 22 22 23 24
19 20 18 18 19 17 16 13 13 15 14 12 11 9 10 10 9 8 7 8 8 7 6 4 3 3 5 7 7 8 8 8 9 9 9 8 7 7 6 6 7 8 7 5 4 3 3 4 6 7 9 10 11 10 10 12 15 16 16 16 16 15 12 12 20 22 17 16 18 16 15 17 17 17 17 17 17 17 19 20 22 24 24 24 24
20 20 20 20 20 17 16 15 15 15 15 14 13 12 10 8 7 7 6 8 7 7 6 5 4 5 7 7 8 9 8 8 9 8 8 7 7 8 7 7 7 5 3 1 2 3 1 3 5 5 6 8 11 11 9 9 12 15 16 16 13 10 13 20 24 21 16 18 21 19 17 18 18 17 17 17 17 17 18 18 19 22 24 24 25
20 21 22 21 19 18 18 18 17 16 16 16 14 12 10 8 7 7 7 8 8 8 9 8 8 8 7 7 8 8 6 6 6 5 4 4 5 6 6 6 4 2 2 1 1 3 4 5 6 6 5 6 8 10 9 8 8 10 13 14 13 13 18 23 22 21 22 21 19 18 20 21 20 19 18 19 19 18 18 18 17 18 21 23 24
21 21 21 20 19 19 20 19 18 17 16 15 15 12 11 10 9 8 8 9 9 8 10 10 9 8 8 7 7 7 4 2 3 3 3 3 4 5 4 3 2 2 1 1 2 4 6 7 8 8 8 8 8 9 10 10 9 8 8 10 12 14 18 20 21 22 25 25 23 20 20 21 22 21 22 21 20 20 20 19 19 17 18 20 21
23 22 21 20 20 19 20 20 20 19 16 15 15 13 11 10 10 9 8 8 8 8 9 9 8 8 8 7 5 4 2 1 2 3 2 2 3 3 2 1 2 2 3 4 5 7 7 7 9 9 9 10 10 10 11 12 12 12 11 11 11 11 13 16 18 19 21 25 27 24 21 20 21 23 25 24 23 22 22 21 20 19 18 18 19
23 22 21 21 21 21 21 21 20 18 17 16 14 13 11 11 11 10 7 6 8 9 8 7 7 7 7 6 2 1 1 2 3 2 1 1 1 2 2 3 4 5 7 8 7 8 9 9 9 8 9 11 10 11 13 13 14 15 15 15 14 14 14 13 14 17 19 22 24 26 26 23 22 23 23 24 24 23 22 22 21 20 19 18 18
23 22 22 23 23 23 22 22 21 19 18 17 15 14 13 12 11 11 9 7 7 7 7 7 6 6 6 5 3 2 2 2 3 1 1 3 4 4 4 5 5 6 6 7 7 8 8 9 8 8 9 11 11 11 12 13 15 15 15 16 16 17 18 17 17 18 20 21 23 26 28 25 24 23 21 21 22 22 22 23 22 21 21 21 20
25 23 24 25 25 25 23 23 23 20 19 18 17 15 15 14 12 12 11 10 9 9 8 8 7 7 7 5 2 2 2 2 2 1 1 3 4 4 5 5 6 6 6 7 8 8 8 8 8 9 10 11 12 11 10 11 13 12 11 12 13 14 15 17 19 20 21 22 25 27 27 26 26 24 21 19 19 21 22 23 24 23 22 21 20
Wind_Direction
185 189 184 181 178 163 156 147 135 125 122 125 128 133 132 129 128 125 123 118 114 112 111 111 108 104 101 99 96 95 93 92 90 89 89 91 91 90 89 89 90 88 86 82 78 79 76 74 68 63 64 62 64 62 59 59 56 56 52 51 53 53 51 44 34 28 28 39 44 40 35 48 112 119 106 100 96 94 87 80 74 57 59 62 64
182 175 179 175 172 167 156 147 137 127 125 125 128 134 131 129 128 126 123 119 116 115 112 110 107 104 102 98 97 96 95 94 92 92 92 92 90 91 90 88 88 86 83 79 77 78 72 66 61 61 62 61 60 56 54 53 51 45 36 30 31 42 44 45 44 46 51 53 48 44 40 57 110 120 111 107 106 100 89 72 60 50 50 51 50
180 168 175 167 168 169 156 148 138 129 128 125 127 133 131 129 127 126 124 121 119 117 114 110 106 104 102 100 100 98 97 96 95 95 93 93 92 93 91 87 85 82 80 76 76 75 68 60 57 59 57 57 52 46 45 43 41 34 31 34 46 60 65 69 67 62 58 51 41 37 37 50 92 112 113 113 116 103 82 58 48 42 40 42 45
184 169 171 163 165 164 157 148 138 132 128 126 126 131 130 128 127 127 124 122 121 117 114 110 108 106 104 103 102 100 99 99 98 97 96 96 94 94 91 84 80 77 78 77 77 73 65 57 54 56 55 55 44 38 39 36 36 38 44 54 69 80 84 82 75 68 63 55 44 29 23 39 74 95 110 115 115 102 74 54 42 32 31 40 44
186 169 168 162 161 159 157 146 137 134 130 127 126 130 128 126 126 125 124 122 120 117 114 112 111 108 106 105 104 103 102 101 101 101 101 97 95 94 91 84 79 77 77 76 77 71 61 59 61 63 62 54 45 42 41 43 47 53 63 71 84 91 89 82 76 71 68 65 60 37 8 27 65 85 106 116 113 104 84 64 42 30 32 42 43
177 166 167 162 159 155 154 146 138 135 132 128 126 130 127 126 125 124 124 122 120 118 116 115 112 111 110 109 108 106 105 104 104 104 103 101 98 95 91 86 82 77 73 71 70 63 57 65 75 74 67 58 55 56 55 59 63 68 73 79 89 95 90 81 77 70 69 69 68 64 2 14 59 87 106 119 117 115 109 95 64 44 38 44 44
170 166 166 162 158 153 153 146 139 138 133 129 128 130 129 128 126 124 124 123 121 118 117 116 115 115 115 115 113 110 109 108 108 106 107 106 104 99 93 87 81 71 61 61 55 51 59 75 83 78 71 67 68 68 69 72 74 77 78 84 91 93 89 82 77 71 69 70 70 77 335 2 55 85 100 112 113 120 118 109 88 64 48 49 47
167 167 164 161 156 152 153 146 140 141 135 131 132 132 132 129 126 125 125 124 120 118 118 118 119 119 119 120 119 117 114 113 113 110 110 107 105 101 93 85 70 54 50 57 55 60 81 94 90 82 77 74 75 76 79 82 83 84 87 93 96 93 87 82 79 76 74 71 78 83 310 6 60 79 90 101 103 111 112 104 90 73 59 54 54
156 165 164 160 155 154 154 148 143 142 138 134 135 133 132 128 127 125 124 123 120 120 120 122 123 122 123 122 122 123 122 120 116 115 114 110 106 100 87 69 45 42 59 76 80 86 99 102 96 89 84 80 79 82 87 90 89 91 97 98 95 88 83 82 79 79 78 81 106 109 357 42 67 78 86 91 92 89 89 92 86 76 66 58 55
144 162 165 158 153 154 156 149 143 144 141 137 137 136 133 130 128 127 126 125 124 124 124 128 127 126 127 126 130 130 126 125 122 121 120 114 105 88 59 46 49 64 81 95 101 104 106 104 99 92 87 85 85 87 92 94 94 100 105 101 91 85 82 82 77 74 72 76 124 122 26 52 66 81 88 89 89 82 81 87 84 76 65 57 53
149 167 165 157 154 152 155 150 144 146 142 140 140 138 137 134 132 129 128 127 127 127 129 132 132 133 133 136 138 137 135 134 135 135 141 143 129 55 59 68 82 97 105 112 116 116 114 108 101 95 90 88 89 91 95 96 99 107 110 103 94 91 86 84 80 77 72 65 89 94 55 73 75 83 88 88 87 83 83 84 80 74 64 52 46
159 175 166 155 152 150 153 148 146 148 144 144 142 141 139 135 133 131 130 129 131 131 135 137 138 142 142 146 147 147 148 148 158 171 205 218 216 115 92 97 103 112 120 125 127 125 118 111 103 99 96 92 93 95 98 99 103 111 113 105 99 95 89 85 83 82 84 81 81 54 51 69 74 77 83 85 85 86 88 86 85 80 72 61 51
163 177 166 154 149 148 150 147 147 148 146 146 144 144 140 135 133 131 132 132 135 137 140 143 144 147 149 153 154 155 158 163 172 174 187 173 150 127 109 107 112 121 129 134 134 129 121 114 109 106 102 96 96 99 103 103 105 111 111 106 103 100 96 92 86 84 88 88 88 47 46 57 68 67 76 85 92 97 98 96 100 99 91 78 65
167 170 165 156 147 145 146 146 147 149 148 148 147 145 139 136 136 134 135 135 139 143 144 148 149 152 156 158 158 160 167 170 144 131 141 138 130 121 117 114 117 126 136 141 138 132 125 119 116 113 108 103 101 102 106 106 107 109 107 105 103 101 99 95 89 85 82 84 248 56 49 48 62 59 70 84 100 102 117 119 124 121 121 107 78
173 169 169 158 148 145 144 146 147 149 149 148 148 146 141 136 137 138 138 140 143 146 148 151 154 159 164 165 167 176 191 164 126 134 135 130 124 117 115 114 120 131 140 143 141 136 128 125 123 119 114 111 109 107 108 108 108 106 103 103 103 102 100 95 91 82 77 75 299 10 35 28 42 23 35 32 62 64 212 175 209 212 204 190 246
177 169 171 161 151 148 144 145 146 148 148 149 149 146 144 138 138 141 141 144 146 148 152 154 158 163 165 166 173 205 207 175 143 143 139 132 121 117 113 111 120 134 145 147 145 142 134 132 128 125 121 118 116 114 112 109 106 101 98 101 104 105 101 96 93 91 97 44 312 321 21 15 9 348 345 319 305 285 277 282 275 272 266 269 272
182 173 176 165 154 153 148 146 145 145 148 149 150 147 145 142 141 142 144 147 149 152 156 159 164 165 168 171 184 204 189 176 147 140 134 129 120 118 115 110 117 135 148 152 150 146 140 137 131 131 127 123 120 117 116 110 105 100 99 100 103 105 104 103 100 107 130 116 289 297 352 356 353 342 336 319 303 288 279 278 278 276 271 273 274
178 176 181 169 156 156 152 148 146 145 149 149 149 151 148 146 145 145 147 150 153 155 157 162 166 161 160 147 128 129 139 143 127 126 122 120 118 116 116 112 114 132 148 154 155 152 147 142 138 138 133 130 123 119 117 110 101 97 97 97 102 99 97 96 85 73 98 143 251 283 318 331 345 336 333 323 310 303 293 284 276 271 272 273 275
162 165 170 165 161 159 155 152 151 150 152 152 152 153 151 149 148 148 150 152 156 158 161 162 160 149 134 113 100 90 85 73 82 96 106 110 108 113 118 116 111 126 145 154 158 158 156 155 152 147 145 146 133 128 115 107 95 86 83 83 96 98 97 92 78 68 83 247 265 280 300 316 332 325 330 322 313 311 303 297 288 277 273 271 273
157 156 154 160 167 162 162 159 156 156 156 157 155 154 154 153 151 152 153 155 159 160 161 159 158 147 130 115 101 90 72 66 75 68 74 98 104 111 108 113 113 118 139 153 159 165 167 171 170 166 167 164 180 190 329 15 68 61 58 56 72 91 109 106 92 91 274 285 283 285 297 312 319 317 323 317 313 311 305 299 293 289 283 275 272
155 156 153 164 176 167 168 165 159 159 158 159 158 155 156 156 154 154 155 158 160 160 161 157 148 140 134 122 107 104 81 70 65 50 64 62 59 78 88 93 101 110 129 150 162 170 175 182 184 184 189 191 216 233 274 318 341 326 331 332 325 329 284 124 107 105 293 285 287 291 300 312 313 315 317 315 314 308 306 301 296 295 291 284 277
157 157 159 173 184 170 166 162 155 157 154 155 162 160 157 158 156 154 155 157 158 156 157 147 130 131 136 125 114 115 95 83 353 358 54 52 34 50 62 61 60 85 110 145 174 182 188 193 197 205 219 229 241 252 256 294 324 318 317 307 314 314 295 319 136 159 261 273 281 287 295 307 309 313 315 314 311 307 307 304 300 298 294 289 283
161 158 164 177 179 159 160 158 154 158 151 151 163 164 162 161 156 153 155 155 153 154 152 144 135 138 147 146 133 110 115 245 268 339 22 53 50 55 56 50 40 30 53 277 230 229 236 230 235 237 247 258 259 263 260 272 301 314 314 306 307 297 290 298 239 194 262 271 275 278 285 296 303 311 314 313 311 309 308 305 303 298 295 290 286
162 162 167 172 166 157 160 161 157 161 156 154 161 165 167 161 155 153 154 152 151 157 153 148 152 162 178 172 153 148 180 234 228 228 275 76 61 49 38 32 31 22 31 329 281 262 275 276 276 273 272 270 270 272 255 259 289 305 307 305 296 282 285 287 272 267 275 273 274 277 284 290 298 307 312 316 315 312 310 305 303 300 297 290 286
163 164 168 165 165 164 163 162 158 161 161 156 157 162 163 158 157 156 157 154 155 166 161 160 172 182 192 174 178 180 167 177 184 175 231 87 51 34 13 5 11 38 25 339 253 223 271 279 290 296 296 295 287 276 231 247 286 298 301 305 296 282 273 272 278 285 273 274 277 279 284 288 293 301 307 314 315 315 313 308 304 301 298 290 284
165 164 165 165 166 166 163 160 160 163 158 151 153 148 144 147 152 158 163 158 161 178 171 176 182 174 192 189 180 165 143 149 177 90 48 9 358 358 354 348 340 349 357 359 339 306 315 307 312 319 319 322 314 307 302 275 276 281 293 306 306 295 271 261 270 278 276 276 276 277 280 282 288 295 301 307 311 314 315 314 309 305 300 294 288
168 162 163 168 166 165 163 160 162 159 150 148 144 132 140 147 146 163 167 155 162 183 176 193 198 181 192 189 160 136 137 172 187 108 124 209 271 320 342 342 331 331 328 348 329 295 311 321 316 320 325 330 327 317 303 285 270 270 274 281 289 287 277 264 257 266 274 271 269 273 276 277 283 289 294 299 303 307 313 317 314 311 307 301 295
168 163 165 169 164 165 161 158 159 151 149 148 135 135 155 162 160 172 164 156 173 180 173 197 219 206 186 167 146 128 139 167 176 166 184 198 196 210 208 209 255 262 268 276 232 245 273 282 280 287 299 302 299 293 280 274 274 280 280 262 257 271 280 279 262 249 254 264 266 267 270 273 276 278 282 290 296 299 304 312 314 312 309 305 297
165 164 166 165 161 163 158 155 151 148 154 147 138 151 166 169 166 178 168 163 177 175 179 199 213 196 165 153 143 141 162 179 191 197 223 228 204 206 211 212 232 243 252 269 262 243 247 259 266 268 270 265 264 270 272 272 271 279 286 278 265 263 273 280 277 263 251 260 269 265 265 270 270 268 270 278 286 291 294 299 305 307 305 305 298
163 163 161 160 160 159 154 152 148 152 156 146 153 168 177 174 162 178 176 160 171 181 191 198 180 161 155 155 155 167 187 191 198 214 242 237 220 220 227 221 232 251 259 272 278 266 260 268 277 277 271 265 257 253 261 269 271 273 277 279 278 276 271 266 270 273 265 258 262 263 262 265 268 269 271 274 277 281 285 289 294 298 300 302 302
163 162 161 161 156 152 149 147 150 156 153 153 171 181 182 173 162 180 178 161 178 188 188 180 163 164 166 167 175 188 199 197 200 217 239 238 216 206 214 222 237 254 266 276 284 281 279 277 277 274 273 276 266 255 258 262 267 274 275 272 276 284 282 267 261 266 269 263 263 267 267 266 268 272 274 275 278 278 277 281 287 291 294 297 300
161 159 159 156 147 147 145 144 155 156 150 164 182 181 169 163 169 180 172 170 184 180 173 169 170 179 178 180 188 192 195 200 198 205 231 232 195 191 204 225 247 260 265 276 285 283 282 282 282 281 281 286 282 270 266 264 265 269 273 274 272 278 283 280 278 276 269 264 267 275 279 276 271 272 275 277 280 279 275 277 281 284 288 291 295
156 156 153 146 143 148 143 144 157 150 153 175 176 161 158 166 174 170 165 175 179 172 173 176 179 185 183 188 191 188 190 192 185 189 207 198 178 210 220 225 242 268 280 288 294 292 293 295 294 293 290 292 297 293 283 280 278 270 268 273 273 273 277 282 288 290 279 267 269 277 284 285 276 274 278 278 277 278 278 277 276 277 281 284 287
151 151 146 143 143 144 142 151 156 150 165 176 158 154 165 173 171 162 167 177 177 178 184 182 182 186 186 188 186 183 183 169 160 166 176 172 184 207 219 225 245 280 299 309 312 309 305 307 307 306 307 305 305 302 295 292 289 281 275 275 275 272 271 272 276 283 285 279 276 277 282 284 281 277 278 277 275 276 279 277 273 274 276 277 280
146 142 136 137 137 144 153 158 155 156 171 162 152 167 175 174 168 167 175 179 183 188 190 184 180 181 179 176 173 169 161 153 151 151 158 165 175 192 209 231 293 303 311 317 320 321 313 316 318 314 314 311 307 304 300 298 296 291 286 284 286 283 274 270 269 270 274 276 274 276 278 280 283 283 280 280 279 276 277 276 273 272 272 272 275
137 130 131 135 137 149 157 154 152 159 166 160 164 176 176 171 167 172 178 183 189 189 189 186 178 176 165 158 160 157 155 157 159 154 153 161 171 192 214 266 324 325 332 331 328 331 324 319 320 318 314 311 310 309 305 303 300 297 294 292 293 292 285 281 280 275 271 272 273 276 280 283 285 284 279 282 285 282 278 275 272 270 267 267 271
129 128 136 139 140 150 154 153 158 162 163 166 171 171 170 171 168 173 179 183 184 180 180 178 179 174 159 159 164 159 161 161 157 158 156 156 174 213 235 316 336 338 339 336 339 338 328 318 316 316 310 308 309 307 304 302 300 299 298 297 296 295 293 292 292 289 285 284 283 281 280 280 282 281 279 280 282 284 282 276 270 267 264 263 267
131 133 138 139 146 156 156 156 160 161 161 166 169 169 174 176 171 174 182 181 172 172 173 169 176 169 157 173 175 162 159 158 151 158 180 159 178 238 284 333 332 338 337 338 349 341 326 317 314 313 309 308 309 308 308 306 304 304 302 303 302 298 297 298 297 296 296 297 297 292 283 276 277 279 280 278 277 281 283 278 272 267 262 263 263
140 139 142 148 155 159 155 155 159 160 162 164 167 173 178 177 173 177 184 176 162 163 167 167 174 172 172 179 172 157 153 161 152 160 202 183 221 276 332 335 331 343 345 351 350 331 319 313 312 313 313 312 313 314 315 313 312 311 308 310 311 307 306 307 304 302 302 302 302 299 293 287 284 281 278 272 271 277 279 276 273 266 260 262 264
144 142 150 156 159 159 154 156 159 159 161 161 164 174 177 177 176 176 177 166 152 159 168 170 176 183 188 175 161 157 154 162 151 171 216 204 236 286 337 340 350 356 349 349 339 326 322 318 317 321 321 320 321 321 319 316 317 319 317 317 318 316 316 317 314 311 312 311 305 301 302 300 295 288 281 274 268 272 275 275 273 267 262 263 264
148 147 157 160 159 158 152 157 159 154 157 161 167 175 174 176 175 171 171 160 154 168 165 160 170 177 176 157 145 143 144 156 152 171 223 227 229 288 343 350 360 339 327 331 328 331 330 324 324 329 330 328 328 328 324 322 324 325 323 322 321 320 322 324 322 322 324 321 312 308 308 305 299 292 286 282 275 270 271 272 269 266 266 264 261
153 155 161 160 160 162 159 166 164 154 162 168 168 171 167 168 168 168 168 153 155 167 151 148 167 166 152 138 136 144 156 179 181 183 206 214 205 211 278 301 305 291 297 319 327 334 328 325 329 334 337 334 334 335 331 329 328 325 325 327 330 332 333 329 323 324 324 320 316 314 312 307 303 299 291 287 280 271 271 273 270 268 268 265 261
159 163 164 160 163 167 164 166 162 156 164 166 161 164 167 162 158 163 162 144 147 153 143 152 161 146 158 169 173 183 191 199 202 203 207 212 210 211 237 260 279 281 282 291 301 317 321 326 332 335 337 336 336 337 334 332 328 327 329 330 331 331 335 333 320 321 323 319 320 320 318 319 315 310 303 298 292 283 281 279 276 273 271 267 262
163 167 165 159 162 165 159 157 162 160 157 154 153 161 167 159 151 157 155 142 140 141 145 152 138 166 214 211 208 212 212 217 220 223 221 220 224 227 240 253 261 268 273 275 261 265 327 332 324 327 331 331 331 333 338 336 331 332 330 327 329 329 329 323 317 322 327 324 326 326 322 324 322 316 311 307 306 301 294 286 280 277 274 270 265
164 167 164 160 162 163 155 153 161 158 148 147 150 154 159 156 154 158 158 151 148 147 151 159 176 215 234 229 231 230 224 226 229 232 230 222 225 229 236 247 254 255 254 252 253 251 243 276 292 302 317 325 325 325 334 335 333 334 331 327 327 319 314 319 321 323 324 321 323 324 322 322 320 318 314 309 309 307 302 296 288 283 278 274 273
164 166 166 163 161 154 150 154 159 154 144 144 150 152 152 155 161 164 164 155 147 152 162 176 197 215 230 236 239 236 229 225 227 236 232 214 219 230 231 232 227 200 176 157 254 263 251 259 278 283 286 298 307 314 321 320 322 330 332 330 325 316 316 320 320 316 318 321 323 320 319 319 317 315 315 313 312 309 306 302 297 293 285 279 277
163 164 165 159 154 151 152 154 154 151 146 148 152 152 149 156 164 166 168 157 144 156 173 187 206 218 229 239 239 241 240 209 219 231 219 211 222 236 242 237 211 192 222 271 281 286 287 288 293 293 289 285 286 297 307 309 307 306 312 319 320 321 322 322 318 314 315 318 321 321 319 317 316 315 318 319 318 314 309 303 301 301 295 286 281
160 162 159 153 153 155 153 148 146 147 150 154 152 148 149 159 166 164 167 165 161 180 193 195 209 221 233 246 242 238 230 189 226 228 210 216 225 238 250 278 303 299 304 309 301 303 308 302 296 293 292 290 286 283 289 297 301 298 293 293 300 311 320 325 325 324 320 316 318 323 323 320 317 316 319 321 320 316 312 307 302 301 300 293 285
159 160 157 154 156 155 151 145 143 145 151 154 151 151 154 160 168 167 166 175 178 189 196 193 205 217 232 250 252 98 76 253 252 241 260 295 316 336 325 310 322 324 322 325 323 321 323 322 315 305 298 299 292 281 281 286 292 295 294 294 298 302 305 311 320 327 326 323 322 322 322 322 319 317 318 319 318 315 313 311 305 299 298 294 287
156 158 155 154 154 151 149 144 141 145 150 150 150 156 159 159 164 167 172 191 194 188 191 194 205 220 231 234 215 180 197 260 286 300 318 331 351 352 341 337 344 342 336 341 343 339 340 342 336 322 309 308 305 297 290 288 291 294 295 299 307 312 311 310 314 321 324 325 323 319 320 323 321 316 317 319 317 315 312 309 307 304 301 296 290
152 155 152 150 149 147 146 142 140 146 150 151 154 158 160 159 162 170 178 190 192 185 188 192 199 216 225 225 215 229 253 275 301 310 318 339 360 11 6 8 13 7 2 4 360 358 360 352 338 327 320 320 323 325 317 304 305 310 311 313 316 317 316 314 317 322 324 323 320 318 318 320 316 312 313 314 312 312 311 307 304 305 303 297 291